Tracking 29892 objects as of 21-Nov-2024
HD Live streaming from Space Station
objects crossing your sky now

INTELSAT 502

Track INTELSAT 502 now!
INTELSAT 502 is classified as:


NORAD ID: 12089
Int'l Code: 1980-098A
Perigee: 36,119.0 km
Apogee: 36,251.9 km
Inclination: 12.1 °
Period: 1,456.2 minutes
Semi major axis: 42556 km
RCS: 13.5237 m2 (large)
Launch date: December 6, 1980
Source: International Telecommunications Satellite Organization (ITSO)
Launch site: AIR FORCE EASTERN TEST RANGE (AFETR)
Your satellite tracking list
Your tracking list is empty




NASA's NSSDC Master Catalog

Two Line Element Set (TLE):
1 12089U 80098A   24325.79646186 -.00000175  00000-0  00000-0 0  9992
2 12089  12.0964 330.6727 0015621 288.2661 202.8016  0.98890556128055
Source of the keplerian elements: AFSPC